K4NSC-13 Weather Reports


time (UTC)temp
C
wind
direction
speed
KPH
gust
KPH
rain 1hr
cm
rain 24hr
cm
rain mn
cm
humidity
%
barometer
mb
20260505124526 19 258 0.0 3.2 0.00 0.00 0.00 76 1017.3
20260505123527 18 0.0 0.0 0.00 0.00 0.00 78 1017.3
20260505122528 17 21 0.0 1.6 0.00 0.00 0.00 83 1017.3
20260505121528 16 179 1.6 3.2 0.00 0.00 0.00 82 1017.2
20260505120527 15 214 0.0 0.0 0.00 0.00 0.00 84 1017.3
20260505115527 13 0.0 0.0 0.00 0.00 0.00 89 1017.2
20260505114608 11 0.0 0.0 0.00 0.00 0.00 95 1017.3
20260505113528 10 7 0.0 1.6 0.00 0.00 0.00 97 1017.3
20260505112549 10 3 0.0 1.6 0.00 0.00 0.00 97 1017.2
20260505111548 10 328 0.0 1.6 0.00 0.00 0.00 97 1017.2
20260505110528 10 0.0 0.0 0.00 0.00 0.00 97 1017.2
20260505101529 10 336 0.0 1.6 0.00 0.00 0.00 96 1016.7
20260505100529 10 0.0 0.0 0.00 0.00 0.00 95 1016.5
20260505095530 10 0.0 0.0 0.00 0.00 0.00 95 1016.5
20260505094529 10 0.0 0.0 0.00 0.00 0.00 94 1016.5
20260505093545 11 0.0 0.0 0.00 0.00 0.00 94 1016.4
20260505092529 11 0.0 0.0 0.00 0.00 0.00 93 1016.4
20260505091530 11 358 0.0 1.6 0.00 0.00 0.00 93 1016.4
20260505090530 11 3 0.0 0.0 0.00 0.00 0.00 92 1016.3
20260505085530 11 0.0 0.0 0.00 0.00 0.00 91 1016.3
20260505084530 11 0.0 0.0 0.00 0.00 0.00 90 1016.2
20260505083531 11 339 0.0 1.6 0.00 0.00 0.00 91 1016.2
20260505082556 11 341 0.0 1.6 0.00 0.00 0.00 91 1016.2
20260505081530 11 0.0 0.0 0.00 0.00 0.00 90 1016.1
20260505080531 11 3 0.0 1.6 0.00 0.00 0.00 90 1016.0
20260505075532 11 0.0 0.0 0.00 0.00 0.00 89 1015.9
20260505074552 12 353 0.0 1.6 0.00 0.00 0.00 89 1015.8
20260505073551 12 0.0 0.0 0.00 0.00 0.00 88 1015.8
20260505072531 12 6 0.0 1.6 0.00 0.00 0.00 87 1015.9
20260505071534 12 341 0.0 1.6 0.00 0.00 0.00 87 1015.9
20260505070552 12 347 0.0 0.0 0.00 0.00 0.00 86 1015.9
20260505065532 13 0.0 0.0 0.00 0.00 0.00 84 1015.8
20260505064534 13 239 0.0 0.0 0.00 0.00 0.00 84 1015.9
20260505063532 13 358 0.0 1.6 0.00 0.00 0.00 83 1016.0
20260505062517 13 0.0 0.0 0.00 0.00 0.00 82 1016.1
20260505061517 14 0.0 0.0 0.00 0.00 0.00 81 1016.1
20260505060538 15 96 0.0 1.6 0.00 0.00 0.00 79 1016.1
20260505055518 16 0.0 0.0 0.00 0.00 0.00 77 1016.1
20260505054555 16 184 3.2 8.0 0.00 0.00 0.00 73 1016.1
20260505053520 16 182 1.6 3.2 0.00 0.00 0.00 72 1016.1
20260505052539 17 180 3.2 6.4 0.00 0.00 0.00 71 1016.0
20260505051539 17 170 3.2 4.8 0.00 0.00 0.00 70 1016.2
20260505050519 17 187 3.2 6.4 0.00 0.00 0.00 69 1016.2
20260505041521 17 187 3.2 6.4 0.00 0.00 0.00 68 1016.3
20260505040519 17 191 3.2 4.8 0.00 0.00 0.00 68 1016.3
20260505035522 17 197 1.6 4.8 0.00 0.00 0.00 68 1016.3
20260505034520 17 214 1.6 4.8 0.00 0.00 0.00 67 1016.4
20260505033520 17 181 3.2 3.2 0.00 0.00 0.00 66 1016.4
20260505032601 18 199 1.6 3.2 0.00 0.00 0.00 66 1016.4
20260505031520 18 223 1.6 6.4 0.00 0.00 0.00 65 1016.3
20260505030521 18 292 1.6 4.8 0.00 0.00 0.00 65 1016.3
20260505025521 18 188 1.6 3.2 0.00 0.00 0.00 64 1016.4
20260505024521 18 229 3.2 6.4 0.00 0.00 0.00 64 1016.4
20260505023541 19 323 1.6 6.4 0.00 0.00 0.00 63 1016.2
20260505022521 19 248 3.2 8.0 0.00 0.00 0.00 63 1016.2
20260505021532 19 155 3.2 8.0 0.00 0.00 0.00 63 1016.1
20260505020518 20 254 1.6 8.0 0.00 0.00 0.00 62 1015.9
20260505015519 20 333 3.2 9.7 0.00 0.00 0.00 62 1015.8
20260505014519 20 342 3.2 9.7 0.00 0.00 0.00 61 1015.6
20260505013522 20 328 3.2 8.0 0.00 0.00 0.00 60 1015.5
20260505012519 20 335 3.2 8.0 0.00 0.00 0.00 58 1015.4
20260505011543 20 294 3.2 8.0 0.00 0.00 0.00 57 1015.3
20260505010520 20 208 3.2 11.3 0.00 0.00 0.00 55 1015.1
20260505005523 19 322 1.6 1.6 0.00 0.00 0.00 56 1014.9
20260505004525 19 332 1.6 3.2 0.00 0.00 0.00 54 1014.7
20260505003545 20 321 3.2 3.2 0.00 0.00 0.00 53 1014.6
20260505002533 20 319 1.6 3.2 0.00 0.00 0.00 54 1014.4
20260505001524 21 330 1.6 3.2 0.00 0.00 0.00 51 1014.3
20260505000539 22 315 0.0 3.2 0.00 0.00 0.00 48 1014.2
20260504235524 23 340 0.0 1.6 0.00 0.00 0.00 44 1014.1
20260504234524 23 339 1.6 4.8 0.00 0.00 0.00 40 1014.0
20260504233544 24 322 1.6 4.8 0.00 0.00 0.00 39 1014.0
20260504232524 25 183 3.2 4.8 0.00 0.00 0.00 38 1013.9
20260504231524 25 170 3.2 6.4 0.00 0.00 0.00 38 1013.9
20260504230525 25 193 3.2 9.7 0.00 0.00 0.00 37 1014.0
20260504225525 25 213 3.2 6.4 0.00 0.00 0.00 37 1014.1
20260504224522 26 153 4.8 11.3 0.00 0.00 0.00 35 1014.0
20260504223523 26 203 4.8 9.7 0.00 0.00 0.00 34 1014.0
20260504222522 26 165 3.2 9.7 0.00 0.00 0.00 35 1014.0
20260504221522 26 167 4.8 11.3 0.00 0.00 0.00 36 1013.9
20260504220522 26 156 3.2 8.0 0.00 0.00 0.00 35 1013.9
20260504215542 26 2 4.8 14.5 0.00 0.00 0.00 36 1013.8
20260504214522 27 334 4.8 11.3 0.00 0.00 0.00 35 1013.7
20260504213522 27 132 6.4 9.7 0.00 0.00 0.00 35 1013.8
20260504212522 27 167 4.8 9.7 0.00 0.00 0.00 33 1013.8
20260504211545 27 272 3.2 9.7 0.00 0.00 0.00 33 1013.8
20260504210523 26 126 4.8 14.5 0.00 0.00 0.00 34 1013.7
20260504205518 26 316 6.4 11.3 0.00 0.00 0.00 34 1013.8
20260504204524 27 139 3.2 11.3 0.00 0.00 0.00 34 1013.8
20260504203523 27 153 6.4 12.9 0.00 0.00 0.00 35 1013.8
20260504202524 27 134 3.2 8.0 0.00 0.00 0.00 34 1013.9
20260504201544 27 271 4.8 12.9 0.00 0.00 0.00 34 1014.1
20260504200518 26 174 4.8 8.0 0.00 0.00 0.00 35 1014.1
20260504195559 26 136 4.8 8.0 0.00 0.00 0.00 34 1014.2
20260504194518 26 153 4.8 9.7 0.00 0.00 0.00 33 1014.4
20260504193519 26 142 6.4 9.7 0.00 0.00 0.00 34 1014.6
20260504192525 26 133 3.2 9.7 0.00 0.00 0.00 34 1014.8
20260504191518 26 140 6.4 9.7 0.00 0.00 0.00 34 1015.0
20260504190519 26 293 4.8 11.3 0.00 0.00 0.00 36 1015.1
20260504185548 26 139 3.2 6.4 0.00 0.00 0.00 36 1015.4
20260504184519 26 153 6.4 11.3 0.00 0.00 0.00 36 1015.5
20260504183519 26 330 4.8 12.9 0.00 0.00 0.00 36 1015.6
20260504182522 25 135 4.8 9.7 0.00 0.00 0.00 37 1015.7
20260504181523 25 287 4.8 8.0 0.00 0.00 0.00 37 1015.8
20260504180539 25 127 4.8 9.7 0.00 0.00 0.00 37 1015.9
20260504175520 25 135 4.8 11.3 0.00 0.00 0.00 37 1015.9
20260504174520 25 131 3.2 8.0 0.00 0.00 0.00 39 1016.1
20260504173520 24 147 6.4 12.9 0.00 0.00 0.00 38 1016.2
20260504172520 24 149 6.4 11.3 0.00 0.00 0.00 39 1016.4
20260504171559 23 357 3.2 8.0 0.00 0.00 0.00 40 1016.5
20260504170537 23 130 4.8 8.0 0.00 0.00 0.00 41 1016.6
20260504150551 21 156 3.2 6.4 0.00 0.00 0.00 51 1018.0
20260504140531 19 191 3.2 4.8 0.00 0.00 0.00 62 1018.2